Regional Weather Roundup
Issued by NWS

Current Version | Previous Version | Text Only | Print | Product List | Glossary On
Versions: 1 2 3 4 5 6 7 8 9 10 11 12 13 14 15 16 17 18 19 20 21 22 23 24 25 26 27 28 29 30 31 32 33 34 35 36 37 38 39 40 41 42 43 44 45 46 47 48 49 50
267
ASCA42 TJSJ 231010
RWRPR
PUERTO RICO/U.S. VIRGIN ISLANDS HOURLY WEATHER ROUNDUP
NATIONAL WEATHER SERVICE SAN JUAN PR
600 AM AST SUN JUL 23 2017

PRZ001>002-007>008-010-231100-
PUERTO RICO

CITY           SKY/WX    TMP DP  RH WIND       PRES   REMARKS
SAN JUAN LMM   PTCLDY    81  79  94 SE3       30.01R
PONCE          PTCLDY    77  73  88 E6        30.02
CEIBA          MOCLDY    79  77  94 CALM      30.04R
$$

VIZ001>002-231100-
U.S. VIRGIN ISLANDS

CITY           SKY/WX    TMP DP  RH WIND       PRES   REMARKS
CHARLOTTE AMA  CLEAR     82  79  89 E9          N/A  HX  93
CHRISTIANSTED  PTCLDY    81  77  89 NE6       30.02R
$$

HOURLY WEATHER ROUNDUP FOR THE NEWS MEDIA

CITY           SKY/WX    TMP DP  RH WIND       PRES   REMARKS
NEW YORK       CLOUDY    72  71  97 CALM      29.76R
NEWARK         CLOUDY    71  70  96 CALM      29.75S
CHICAGO        PTCLDY    71  68  90 CALM      29.78S
HARTFORD       CLOUDY    70  66  87 CALM      29.73R
BOSTON         MOCLDY    68  56  65 NE17      29.79R
DALLAS         PTCLDY    82  72  71 S9        29.86S
PHILADELPHIA   CLOUDY    78  70  76 W10       29.75S
LOS ANGELES    PTCLDY    68  64  87 W5        29.87F
WASHINGTON DC  CLOUDY    72  71  97 CALM      29.78S FOG



USA.gov is the U.S. government's official web portal to all federal, state and local government web resources and services.